Weather History for KOTH - February, 2015

Change the Weather History Date:

Saturday, February 21, 2015

  Actual Average Record
Temperature  
Mean Temperature 50 °F 47 °F  
Max Temperature 55 °F 53 °F 73 °F (1973)
Min Temperature 45 °F 40 °F 25 °F (1920)
Degree Days  
Heating Degree Days 15 18  
Month to date heating degree days 247 395  
Since 1 July heating degree days 1992 3050  
Cooling Degree Days 0 0  
Month to date cooling degree days 0 0  
Year to date cooling degree days 0 0  
Moisture  
Dew Point 44 °F    
Average Humidity 81    
Maximum Humidity 100    
Minimum Humidity 61    
Precipitation  
Precipitation 0.00 in 0.27 in 3.13 in (1948)
Month to date precipitation 7.23 5.67  
Year to date precipitation 9.12 15.86  
Sea Level Pressure  
Sea Level Pressure 30.19 in    
Wind  
Wind Speed 8 mph (NNE)    
Max Wind Speed 21 mph    
Max Gust Speed 24 mph    
Visibility 10 miles    
Events      
T = Trace of Precipitation, MM = Missing Value Source: NWS Daily Summary

Daily Weather History Graph

Daily Weather History Graph

Search for Another Location

Airport or City:

Trip Planner

Search our weather history database for the weather conditions in past years. The results will help you decide how hot, cold, wet, or windy it might be!

Date:

Astronomy

Feb. 21, 2015 Rise Set
Actual Time 7:06 AM PST 5:55 PM PST
Civil Twilight 6:37 AM PST 6:24 PM PST
Nautical Twilight 6:04 AM PST 6:57 PM PST
Astronomical Twilight 5:31 AM PST 7:30 PM PST
Moon 8:35 AM PST (2/21) 9:44 PM PST (2/21)
Length of Visible Light 11h 47m
Length of Day
10h 49m
Waxing Crescent, 12% of the Moon is Illuminated
Feb 21
Waxing Crescent
Feb 25
First Quarter
Mar 5
Full
Mar 13
Last Quarter
Mar 20
New

Hourly Weather History & Observations

Time (PST) Temp. Windchill Dew Point Humidity Pressure Visibility Wind Dir Wind Speed Gust Speed Precip Events Conditions
12:15 AM 46.4 °F - 46.4 °F 100% 30.23 in 10.0 mi Calm Calm - N/A   Overcast
12:35 AM 46.4 °F - 46.4 °F 100% 30.22 in 10.0 mi Calm Calm - N/A   Overcast
12:55 AM 46.4 °F - 46.4 °F 100% 30.23 in 10.0 mi Calm Calm - N/A   Overcast
1:15 AM 48.2 °F - 48.2 °F 100% 30.23 in 10.0 mi Calm Calm - N/A   Overcast
1:35 AM 48.2 °F - 48.2 °F 100% 30.23 in 10.0 mi Calm Calm - N/A   Overcast
1:55 AM 48.2 °F - 48.2 °F 100% 30.23 in 10.0 mi NNE 4.6 mph - N/A   Overcast
2:15 AM 48.2 °F - 48.2 °F 100% 30.22 in 10.0 mi NNE 5.8 mph - N/A   Mostly Cloudy
2:35 AM 48.2 °F - 48.2 °F 100% 30.22 in 10.0 mi NE 6.9 mph - N/A   Partly Cloudy
2:55 AM 48.2 °F - 48.2 °F 100% 30.22 in 10.0 mi NNE 8.1 mph - N/A   Clear
3:15 AM 48.2 °F - 48.2 °F 100% 30.21 in 10.0 mi NNE 6.9 mph - N/A   Partly Cloudy
3:35 AM 48.2 °F - 46.4 °F 93% 30.21 in 10.0 mi North 5.8 mph - N/A   Scattered Clouds
3:55 AM 46.4 °F 45.2 °F 44.6 °F 93% 30.20 in 10.0 mi NE 3.5 mph - N/A   Partly Cloudy
4:15 AM 48.2 °F - 46.4 °F 93% 30.21 in 10.0 mi North 4.6 mph - N/A   Clear
4:35 AM 48.2 °F - 46.4 °F 93% 30.21 in 10.0 mi NNE 6.9 mph - N/A   Clear
4:55 AM 46.4 °F 42.9 °F 46.4 °F 100% 30.21 in 10.0 mi NE 6.9 mph - N/A   Clear
5:15 AM 46.4 °F 44.3 °F 46.4 °F 100% 30.21 in 10.0 mi ENE 4.6 mph - N/A   Clear
5:35 AM 46.4 °F 41.9 °F 46.4 °F 100% 30.21 in 10.0 mi NNE 9.2 mph - N/A   Clear
5:55 AM 46.4 °F 45.2 °F 46.4 °F 100% 30.21 in 10.0 mi NNE 3.5 mph - N/A   Clear
6:15 AM 44.6 °F 43.1 °F 44.6 °F 100% 30.20 in 10.0 mi NE 3.5 mph - N/A   Clear
6:35 AM 44.6 °F 43.1 °F 44.6 °F 100% 30.20 in 10.0 mi NE 3.5 mph - N/A   Clear
6:55 AM 44.6 °F 42.2 °F 44.6 °F 100% 30.21 in 10.0 mi North 4.6 mph - N/A   Clear
7:15 AM 44.6 °F 43.1 °F 44.6 °F 100% 30.21 in 10.0 mi NNE 3.5 mph - N/A   Partly Cloudy
7:35 AM 44.6 °F 41.4 °F 44.6 °F 100% 30.22 in 10.0 mi NNE 5.8 mph - N/A   Mostly Cloudy
7:55 AM 46.4 °F 44.3 °F 46.4 °F 100% 30.23 in 10.0 mi North 4.6 mph - N/A   Overcast
8:15 AM 46.4 °F 44.3 °F 46.4 °F 100% 30.23 in 10.0 mi North 4.6 mph - N/A   Overcast
8:35 AM 48.2 °F - 46.4 °F 93% 30.23 in 10.0 mi North 6.9 mph - N/A   Scattered Clouds
8:55 AM 48.2 °F - 46.4 °F 93% 30.23 in 10.0 mi North 6.9 mph - N/A   Clear
9:15 AM 50.0 °F - 46.4 °F 87% 30.22 in 10.0 mi ENE 3.5 mph - N/A   Clear
9:35 AM 51.8 °F - 46.4 °F 82% 30.22 in 10.0 mi NE 6.9 mph - N/A   Clear
9:55 AM 51.8 °F - 44.6 °F 76% 30.22 in 10.0 mi NE 6.9 mph - N/A   Clear
10:15 AM 51.8 °F - 44.6 °F 76% 30.22 in 10.0 mi NE 6.9 mph - N/A   Clear
10:35 AM 53.6 °F - 44.6 °F 72% 30.22 in 10.0 mi ENE 6.9 mph - N/A   Clear
10:55 AM 53.6 °F - 44.6 °F 72% 30.22 in 10.0 mi ENE 8.1 mph - N/A   Partly Cloudy
11:15 AM 55.4 °F - 44.6 °F 67% 30.21 in 10.0 mi NE 4.6 mph - N/A   Partly Cloudy
11:35 AM 53.6 °F - 44.6 °F 72% 30.21 in 10.0 mi NE 8.1 mph - N/A   Scattered Clouds
11:55 AM 55.4 °F - 44.6 °F 67% 30.21 in 10.0 mi ENE 6.9 mph - N/A   Clear
12:15 PM 55.4 °F - 42.8 °F 63% 30.20 in 10.0 mi NE 9.2 mph - N/A   Clear
12:35 PM 55.4 °F - 44.6 °F 67% 30.19 in 10.0 mi NE 9.2 mph - N/A   Clear
12:55 PM 55.4 °F - 42.8 °F 63% 30.18 in 10.0 mi ENE 6.9 mph - N/A   Clear
1:15 PM 55.4 °F - 42.8 °F 63% 30.17 in 10.0 mi North 10.4 mph - N/A   Clear
1:35 PM 55.4 °F - 46.4 °F 72% 30.17 in 10.0 mi North 15.0 mph - N/A   Clear
1:55 PM 55.4 °F - 46.4 °F 72% 30.16 in 10.0 mi North 16.1 mph 20.7 mph N/A   Clear
2:15 PM 55.4 °F - 46.4 °F 72% 30.15 in 10.0 mi North 15.0 mph 23.0 mph N/A   Clear
2:35 PM 55.4 °F - 46.4 °F 72% 30.14 in 10.0 mi North 17.3 mph 26.5 mph N/A   Clear
2:55 PM 55.4 °F - 46.4 °F 72% 30.14 in 10.0 mi North 20.7 mph - N/A   Clear
3:15 PM 55.4 °F - 46.4 °F 72% 30.14 in 10.0 mi North 19.6 mph 25.3 mph N/A   Clear
3:35 PM 55.4 °F - 46.4 °F 72% 30.14 in 10.0 mi North 16.1 mph 23.0 mph N/A   Clear
3:55 PM 55.4 °F - 46.4 °F 72% 30.13 in 10.0 mi North 18.4 mph 24.2 mph N/A   Clear
4:15 PM 55.4 °F - 46.4 °F 72% 30.13 in 10.0 mi North 17.3 mph 24.2 mph N/A   Clear
4:35 PM 55.4 °F - 48.2 °F 77% 30.13 in 10.0 mi North 17.3 mph 20.7 mph N/A   Clear
4:55 PM 55.4 °F - 48.2 °F 77% 30.13 in 10.0 mi North 17.3 mph - N/A   Clear
5:15 PM 55.4 °F - 48.2 °F 77% 30.14 in 10.0 mi North 12.7 mph - N/A   Clear
5:35 PM 53.6 °F - 46.4 °F 77% 30.14 in 10.0 mi NE 8.1 mph - N/A   Clear
5:55 PM 53.6 °F - 41.0 °F 62% 30.14 in 10.0 mi ENE 9.2 mph - N/A   Clear
6:15 PM 53.6 °F - 42.8 °F 67% 30.14 in 10.0 mi NE 8.1 mph - N/A   Clear
6:35 PM 53.6 °F - 42.8 °F 67% 30.15 in 10.0 mi NE 9.2 mph - N/A   Clear
6:55 PM 51.8 °F - 42.8 °F 71% 30.16 in 10.0 mi NNE 5.8 mph - N/A   Clear
7:15 PM 51.8 °F - 42.8 °F 71% 30.17 in 10.0 mi NE 6.9 mph - N/A   Clear
7:35 PM 51.8 °F - 42.8 °F 71% 30.17 in 10.0 mi NE 8.1 mph - N/A   Clear
7:55 PM 51.8 °F - 42.8 °F 71% 30.17 in 10.0 mi NE 5.8 mph - N/A   Clear
8:15 PM 50.0 °F - 41.0 °F 71% 30.18 in 10.0 mi NE 8.1 mph - N/A   Clear
8:35 PM 51.8 °F - 41.0 °F 67% 30.18 in 10.0 mi ENE 9.2 mph - N/A   Clear
8:55 PM 51.8 °F - 39.2 °F 62% 30.19 in 10.0 mi NE 9.2 mph - N/A   Clear
9:15 PM 51.8 °F - 37.4 °F 58% 30.20 in 10.0 mi NE 9.2 mph - N/A   Clear
9:35 PM 51.8 °F - 37.4 °F 58% 30.20 in 10.0 mi NE 11.5 mph - N/A   Clear
9:55 PM 50.0 °F - 37.4 °F 62% 30.20 in 10.0 mi NE 6.9 mph - N/A   Clear
10:15 PM 50.0 °F - 37.4 °F 62% 30.21 in 10.0 mi NE 9.2 mph - N/A   Clear
10:35 PM 50.0 °F - 35.6 °F 58% 30.21 in 10.0 mi NE 9.2 mph - N/A   Clear
10:55 PM 48.2 °F - 37.4 °F 66% 30.21 in 10.0 mi NNE 10.4 mph - N/A   Clear
11:15 PM 46.4 °F 42.9 °F 39.2 °F 76% 30.21 in 10.0 mi NNE 6.9 mph - N/A   Clear
11:35 PM 46.4 °F 42.4 °F 41.0 °F 81% 30.21 in 10.0 mi NNE 8.1 mph - N/A   Clear
11:55 PM 46.4 °F 42.4 °F 41.0 °F 81% 30.22 in 10.0 mi NNE 8.1 mph - N/A   Clear